Tracking 19489 objects as of 22-Jan-2019
HD Live streaming from Space Station
objects crossing your sky now

COSMOS 2325 (GLONASS)

Track COSMOS 2325 (GLONASS) now!
COSMOS 2325 (GLONASS) is classified as:


NORAD ID: 23734
Int'l Code: 1995-068A
Perigee: 19,089.5 km
Apogee: 19,184.5 km
Inclination: 66.0 °
Period: 675.7 minutes
Semi major axis: 25507 km
RCS: 4.435 m2 (large)
Launch date: December 14, 1995
Source: Commonwealth of Independent States (former USSR) (CIS)
Launch site: TYURATAM MISSILE AND SPACE COMPLEX (TTMTR)
SV:
aabbcc
Your satellite tracking list
Your tracking list is empty




NASA's NSSDC Master Catalog

Two Line Element Set (TLE):
1 23734U 95068A   19021.46652160 +.00000014 +00000-0 +00000-0 0  9995
2 23734 066.0422 291.0851 0018629 248.1382 292.3411 02.13102377179848
Source of the keplerian elements: AFSPC